Satellite: FAST1-2
Catalog number: 37227
Epoch time:      11003.48774389
Element set:    0043
Inclination:      071.9734 deg
RA of node:       042.3429 deg
Eccentricity:    0.0018842
Arg of perigee:   230.4777 deg
Mean anomaly:     129.4699 deg
Mean motion:   14.76381197 rev/day
Decay rate:        4.8e-07 rev/day^2
Epoch rev:           00655
Checksum:              320

/EX
SB KEPS @ AMSAT  $ORB11006.W
Orbital Elements  11006.WEATHER

HR AMSAT ORBITAL ELEMENTS FOR WEATHER SATELLITES
FROM WA5QGD FORT WORTH,TX January 6, 2011
Send Subscribe/unsubscribe to KEPS at http://www.amsat.org/mailman/listinfo/kep
BID: ORB11006.W
TO ALL RADIO AMATEURS BT

Satellite: NOAA-10
Catalog number: 16969
Epoch time:      11006.15066574
Element set:     347
Inclination:      098.6365 deg
RA of node:       038.0020 deg
Eccentricity:    0.0012115
Arg of perigee:   343.0049 deg
Mean anomaly:     017.0709 deg
Mean motion:   14.27439665 rev/day
Decay rate:       -5.8e-07 rev/day^2
Epoch rev:           26453
Checksum:              287

Satellite: NOAA-11
Catalog number: 19531
Epoch time:      11006.26188055
Element set:     352
Inclination:      098.7606 deg
RA of node:       096.7577 deg
Eccentricity:    0.0010615
Arg of perigee:   293.2871 deg
Mean anomaly:     066.7172 deg
Mean motion:   14.14899369 rev/day
Decay rate:      -2.76e-06 rev/day^2
Epoch rev:           14985
Checksum:              332

Satellite: NOAA-12
Catalog number: 21263
Epoch time:      11006.46001769
Element set:     845
Inclination:      098.7589 deg
RA of node:       024.5281 deg
Eccentricity:    0.0011757
Arg of perigee:   299.6624 deg
Mean anomaly:     060.3388 deg
Mean motion:   14.25677397 rev/day
Decay rate:        5.3e-07 rev/day^2
Epoch rev:            2136
Checksum:              312

Satellite: MET-3/5
Catalog number: 21655
Epoch time:      11005.86490984
Element set:    0007
Inclination:      082.5554 deg
RA of node:       165.4465 deg
Eccentricity:    0.0013088
Arg of perigee:   198.7201 deg
Mean anomaly:     161.3501 deg
Mean motion:   13.17027187 rev/day
Decay rate:        5.1e-07 rev/day^2
Epoch rev:           93235
Checksum:              290

Satellite: MET-2/21
Catalog number: 22782
Epoch time:      11006.78140905
Element set:     984
Inclination:      082.5485 deg
RA of node:       090.9446 deg
Eccentricity:    0.0022039
Arg of perigee:   187.8574 deg
Mean anomaly:     172.2256 deg
Mean motion:   13.83653432 rev/day
Decay rate:        1.0e-08 rev/day^2
Epoch rev:           87623
Checksum:              311

Satellite: OKEAN-4
Catalog number: 23317
Epoch time:      11006.49939391
Element set:     440
Inclination:      082.5394 deg
RA of node:       164.0854 deg
Eccentricity:    0.0020611
Arg of perigee:   294.0193 deg
Mean anomaly:     065.8847 deg
Mean motion:   14.82919654 rev/day
Decay rate:       2.47e-06 rev/day^2
Epoch rev:           87658
Checksum:              324

Satellite: NOAA-14
Catalog number: 23455
Epoch time:      11006.46722495
Element set:     333
Inclination:      098.8642 deg
RA of node:       090.6478 deg
Eccentricity:    0.0009874
Arg of perigee:   023.6971 deg
Mean anomaly:     336.4667 deg
Mean motion:   14.13803997 rev/day
Decay rate:        1.3e-07 rev/day^2
Epoch rev:           82622
Checksum:              322

Satellite: NOAA-15
Catalog number: 25338
Epoch time:      11006.23700120
Element set:     660
Inclination:      098.6387 deg
RA of node:       354.7371 deg
Eccentricity:    0.0010364
Arg of perigee:   199.4553 deg
Mean anomaly:     160.6246 deg
Mean motion:   14.24875777 rev/day
Decay rate:       -7.2e-07 rev/day^2
Epoch rev:           65766
Checksum:              311

Satellite: RESURS
Catalog number: 25394
Epoch time:      11006.59412920
Element set:     693
Inclination:      098.2987 deg
RA of node:       018.5267 deg
Eccentricity:    0.0001831
Arg of perigee:   016.2710 deg
Mean anomaly:     343.8524 deg
Mean motion:   14.24221110 rev/day
Decay rate:        2.6e-07 rev/day^2
Epoch rev:           64930
Checksum:              270

Satellite: FENGYUN1
Catalog number: 25730
Epoch time:      11005.78689655
Element set:    0226
Inclination:      098.8035 deg
RA of node:       330.6773 deg
Eccentricity:    0.0022062
Arg of perigee:   047.3360 deg
Mean anomaly:     312.9658 deg
Mean motion:   14.08494557 rev/day
Decay rate:       3.66e-06 rev/day^2
Epoch rev:           60020
Checksum:              299

Satellite: OKEAN-0
Catalog number: 25860
Epoch time:      11005.61954263
Element set:    0196
Inclination:      097.8607 deg
RA of node:       336.7626 deg
Eccentricity:    0.0001587
Arg of perigee:   102.5910 deg
Mean anomaly:     257.5470 deg
Mean motion:   14.73698647 rev/day
Decay rate:        9.2e-07 rev/day^2
Epoch rev:           61671
Checksum:              317

Satellite: NOAA-16
Catalog number: 26536
Epoch time:      11006.30067930
Element set:     140
Inclination:      099.1569 deg
RA of node:       033.4269 deg
Eccentricity:    0.0011133
Arg of perigee:   125.0892 deg
Mean anomaly:     235.1326 deg
Mean motion:   14.12591092 rev/day
Decay rate:      -2.52e-06 rev/day^2
Epoch rev:           53050
Checksum:              261

